Tracking 29892 objects as of 21-Nov-2024
HD Live streaming from Space Station
objects crossing your sky now

STARLINK-31693

Track STARLINK-31693 now!
10-day predictions
STARLINK-31693 is classified as:


NORAD ID: 59441
Int'l Code: 2024-065W
Perigee: 453.0 km
Apogee: 455.8 km
Inclination: 53.2 °
Period: 93.5 minutes
Semi major axis: 6825 km
RCS: Unknown
Launch date: April 7, 2024
Source: United States (US)
Launch site: AIR FORCE WESTERN TEST RANGE (AFWTR)
Your satellite tracking list
Your tracking list is empty




NASA's NSSDC Master Catalog

Two Line Element Set (TLE):
1 59441U 24065W   24325.42561225  .00001374  00000-0  44339-4 0  9995
2 59441  53.1603 327.6852 0002045  90.4812 269.6427 15.39621514 36272
Source of the keplerian elements: AFSPC